Regional Weather Roundup
Issued by NWS

Home | Current Version | Previous Version | Graphics & Text | Print | Product List | Glossary On
Versions: 1 2 3 4 5 6 7 8 9 10 11 12 13 14 15 16 17 18 19 20 21 22 23 24 25 26 27 28 29 30 31 32 33 34 35 36 37 38 39 40 41 42 43 44 45 46 47 48 49 50
000
ASUS45 KABQ 282201
RWRNM
NEW MEXICO REGIONAL WEATHER ROUNDUP
NATIONAL WEATHER SERVICE ALBUQUERQUE NM
400 PM MDT SUN AUG 28 2016

NOTE: "FAIR" MEANS FEW OR NO CLOUDS BELOW 12,000 FEET AGL WITH NO
       SIGNIFICANT WEATHER OR OBSTRUCTIONS TO VISION.

      THIS PRODUCT IS RELEASED AS TWO VERSIONS.  ONE VERSION NEAR
      THE TOP OF THE HOUR CONTAINING PRELIMINARY DATA FROM ALBUQUERQUE
      AND OTHER STATIONS.  A FINAL VERSION WITH ADDITIONAL DATA IS
      ISSUED ABOUT 10 MINUTES AFTER THE HOUR.

NMZ501-503-504-510>518-282300-
NORTHWEST PLATEAU/NORTHCENTRAL MOUNTAINS

CITY           SKY/WX    TMP DP  RH WIND       PRES   REMARKS
FARMINGTON     PTSUNNY   76  39  26 SW7       30.20F
SANTA FE       FAIR      78  33  19 W10       30.23F
TAOS           FAIR      73  34  23 W7        30.28F
ANGEL FIRE     FAIR      67  34  29 W10       30.35F

$$
NMZ402-403-502-505>509-282300-
WESTCENTRAL MOUNTAINS/SOUTHWEST MOUNTAINS

CITY           SKY/WX    TMP DP  RH WIND       PRES   REMARKS
GALLUP         CLOUDY    62  45  53 CALM      30.30F
GRANTS         PTSUNNY   70  38  30 N8G17     30.29S
SILVER CITY    PTSUNNY   68  58  70 NE8       30.19F

$$
NMZ407-409-411-412-282300-
SOUTHERN DESERTS

CITY           SKY/WX    TMP DP  RH WIND       PRES   REMARKS
DEMING         FAIR      77  56  48 N13       30.10S
LAS CRUCES     PTSUNNY   84  53  34 N9        30.12S
HOLLOMAN AFB   FAIR      85  52  31 VRB6      30.06F
ALAMOGORDO     FAIR      84  50  30 SW3       30.09F
T OR C         FAIR      77  48  35 NW9       30.16F

$$
NMZ519>523-282300-
CENTRAL VALLEYS/CENTRAL HIGHLANDS

CITY           SKY/WX    TMP DP  RH WIND       PRES   REMARKS
ALBUQUERQUE    PTSUNNY   79  43  27 S13       30.20F
MORIARTY ARPT  FAIR      78  34  20 W7        30.24F
CLINES CORNERS FAIR      75  39  27 W12       30.29F
BELEN          FAIR      77  39  25 S15G21    30.19F
SOCORRO        FAIR      79  43  28 SE7       30.17F

$$
NMZ524>526-539-540-282300-
SOUTHCENTRAL MOUNTAINS

CITY           SKY/WX    TMP DP  RH WIND       PRES   REMARKS
RUIDOSO        NOT AVBL

$$
NMZ527>531-282300-
NORTHEAST HIGHLANDS/NORTHEAST PLAINS

CITY           SKY/WX    TMP DP  RH WIND       PRES   REMARKS
LAS VEGAS      FAIR      77  37  23 SW14G22   30.25F
RATON          FAIR      81  40  23 S3        30.18F
CLAYTON        FAIR      83  49  30 SW7       30.11F

$$
NMZ532>537-282300-
EASTCENTRAL PLAINS

CITY           SKY/WX    TMP DP  RH WIND       PRES   REMARKS
TUCUMCARI      LGT RAIN  77  59  53 S12       30.06S
CANNON AFB     FAIR      85  56  37 S10       30.10F
CLOVIS AIRPORT FAIR      84  57  39 SE13      30.10F

$$
NMZ028-029-538-282300-
SOUTHEAST PLAINS

CITY           SKY/WX    TMP DP  RH WIND       PRES   REMARKS
ROSWELL        FAIR      86  59  39 SE9       30.06F
ARTESIA        FAIR      82  64  54 N3        30.06F
CARLSBAD       FAIR      86  59  39 VRB3      30.02F
HOBBS          MOSUNNY   84  57  39 SE10G16   30.08F


$$




USA.gov is the U.S. government's official web portal to all federal, state and local government web resources and services.